Wind_Speed
9 11 12 13 13 14 16 17 18 18 19 19 18 16 15 14 15 15 15 16 16 16 17 17 17 17 16 15 15 15 15 15 14 14 13 13 13 12 10 8 6 4 3 3 3 3 3 3 3 3 4 5 7 8 9 9 9 10 11 13 14 14 15 15 14 12 10 9 8 8 8 8 8 8 8 7 7 6 6 6 6 5 5 5 5
9 11 13 14 14 15 16 17 18 18 19 19 19 17 16 16 16 16 15 16 16 17 18 18 17 16 15 14 14 14 14 14 13 13 13 13 13 12 10 8 6 4 3 3 3 3 3 3 3 3 3 5 6 8 9 9 9 11 12 13 14 15 15 16 16 16 14 13 11 10 10 10 10 10 9 8 8 7 7 6 6 6 5 6 6
11 11 13 15 16 16 16 17 18 19 19 20 20 18 17 17 16 16 16 16 17 17 17 16 15 14 13 13 13 13 13 13 13 14 14 14 13 12 10 8 6 3 2 3 3 3 3 3 2 2 3 5 6 7 8 8 8 10 11 12 13 13 14 14 15 15 15 15 14 13 13 12 12 11 10 9 8 8 7 6 6 6 6 6 6
14 13 13 15 17 17 18 18 19 20 21 20 20 19 18 18 17 17 17 17 17 17 17 16 14 13 12 12 13 13 13 14 15 15 15 14 13 11 9 8 6 4 2 2 3 3 3 3 1 1 2 4 5 6 6 6 6 7 8 9 11 11 12 13 14 14 15 15 15 14 14 13 12 12 11 11 10 9 9 8 7 7 6 6 7
18 16 14 15 18 19 20 20 21 21 21 21 21 20 19 19 19 19 18 18 17 17 16 15 14 13 13 12 12 13 15 16 17 16 15 14 13 11 10 9 7 5 2 0 2 3 3 2 1 0 1 2 4 4 4 5 5 6 6 7 8 9 10 11 12 13 14 14 14 14 13 13 13 12 12 12 12 11 11 10 9 9 8 7 7
18 17 16 16 18 19 19 19 20 21 22 22 22 22 21 21 21 20 19 18 18 17 16 15 14 14 14 14 15 16 17 17 16 15 15 14 12 11 10 10 8 6 3 1 1 3 3 2 1 1 1 1 2 3 2 4 5 6 6 7 7 8 9 10 11 13 14 14 14 13 13 13 13 13 13 13 12 12 12 11 11 11 10 9 8
18 17 17 16 17 18 19 19 20 21 22 22 22 22 22 22 22 21 20 19 18 17 16 15 15 15 15 16 16 16 15 14 14 15 14 14 12 11 11 10 8 6 4 2 1 2 3 3 2 2 2 1 1 2 2 3 5 6 6 7 7 7 8 9 10 12 13 13 13 12 12 12 12 12 12 12 12 12 12 11 11 11 10 10 10
19 19 18 17 17 18 20 20 21 22 22 22 22 22 22 23 23 22 22 21 19 19 17 16 15 15 16 16 15 15 14 14 15 15 14 14 13 13 12 10 9 7 5 4 1 1 2 3 3 2 2 2 1 1 2 4 5 5 5 5 6 6 6 8 9 10 12 12 12 12 12 11 11 11 11 12 12 12 11 11 11 10 10 9 9
20 20 20 19 18 19 20 21 22 22 22 22 22 22 22 23 24 24 23 22 21 20 19 18 17 16 16 15 15 15 15 15 15 15 15 15 14 14 12 11 10 8 6 5 3 1 2 3 4 3 3 3 2 2 3 4 5 5 4 4 4 4 5 6 8 10 11 12 12 12 12 12 11 11 11 11 11 11 11 10 10 10 9 9 9
20 20 20 20 20 20 21 21 21 20 21 22 22 22 22 23 23 23 23 23 22 21 21 20 19 18 16 16 16 15 15 16 16 16 16 16 15 14 12 11 10 9 7 6 5 3 2 3 4 5 4 4 4 3 4 5 5 5 4 3 3 3 4 6 9 10 11 11 11 12 12 12 11 11 11 11 11 10 10 10 9 10 9 9 9
20 20 20 21 21 22 21 20 20 20 21 22 22 21 21 21 22 22 22 22 22 21 21 20 20 19 18 17 17 16 15 16 16 17 17 17 16 14 13 12 12 10 9 8 6 5 3 3 4 5 5 5 5 5 5 6 6 6 4 3 3 4 4 6 9 11 11 11 11 12 11 10 10 10 10 11 11 11 10 9 9 9 9 10 10
22 21 21 21 22 22 21 20 19 19 20 20 21 21 21 21 21 21 21 20 20 20 20 20 19 19 19 18 17 17 16 16 17 17 18 18 17 16 15 14 13 12 12 10 8 6 5 3 4 5 6 6 6 6 6 7 8 8 6 5 4 4 5 7 9 11 11 10 11 12 11 10 9 10 11 11 11 11 11 10 9 9 9 9 10
23 22 22 22 21 21 21 21 20 19 19 20 20 21 21 22 22 22 21 20 20 20 20 20 19 19 19 18 18 17 17 17 17 17 18 18 18 18 17 16 15 14 13 12 9 7 6 5 4 4 6 6 7 6 6 7 8 9 8 7 6 5 6 8 10 10 10 11 12 12 11 10 10 9 10 11 11 11 11 11 10 10 10 9 9
24 23 23 23 22 22 22 22 22 21 21 21 21 21 21 22 22 22 22 22 22 21 21 21 20 20 20 19 19 18 17 17 17 18 18 18 18 18 19 18 17 16 15 13 11 10 9 7 6 5 5 7 7 7 7 8 9 10 10 9 7 6 6 8 9 10 10 10 12 12 11 11 11 10 9 10 11 11 11 11 11 10 10 10 10
26 25 25 24 23 24 24 24 24 23 22 22 21 21 21 22 22 23 23 23 22 22 22 21 21 21 20 19 19 18 18 18 17 17 17 17 17 18 18 19 19 18 16 14 13 12 11 9 8 6 6 7 8 7 7 8 9 10 11 10 9 7 7 8 9 9 9 10 11 11 10 11 12 11 10 10 10 10 11 11 11 11 11 11 11
27 26 25 25 24 25 26 26 26 25 25 23 22 22 21 22 22 23 23 22 22 22 22 22 22 22 21 20 19 18 18 18 17 17 18 18 17 17 17 18 18 18 17 16 15 14 13 12 10 9 7 8 9 9 8 9 9 10 12 12 10 9 8 8 9 10 10 11 11 10 10 10 11 11 10 9 9 10 10 11 11 12 12 12 12
27 25 25 24 24 25 26 26 26 26 25 24 23 22 22 22 23 23 23 23 22 22 22 22 22 22 21 20 19 19 18 18 18 19 19 18 18 18 18 17 17 18 18 17 16 15 15 14 13 11 10 10 10 10 10 9 10 11 12 12 11 10 9 9 10 10 10 11 12 11 10 10 11 11 11 9 9 9 10 11 12 12 12 13 13
26 25 24 24 24 24 25 25 25 26 25 24 23 23 22 22 23 24 24 23 22 22 22 23 23 23 22 21 21 20 20 20 20 20 19 19 19 19 19 18 18 18 18 17 17 16 16 16 15 14 12 11 12 12 11 11 11 12 12 12 12 12 11 11 11 11 11 12 12 12 11 11 11 12 11 10 9 9 9 10 11 12 12 13 13
27 25 24 22 21 21 22 22 22 23 24 24 24 24 24 24 24 24 23 23 23 24 24 24 23 22 22 22 21 21 20 20 20 21 20 20 20 21 21 20 20 20 19 18 18 17 17 17 17 16 15 14 13 13 13 12 12 12 13 13 12 12 13 12 12 11 12 13 13 13 13 13 13 13 13 12 10 10 10 10 11 12 13 13 13
28 26 24 21 19 18 18 18 19 21 22 24 25 25 25 25 25 24 23 23 23 24 24 23 23 22 22 21 21 20 19 19 20 20 20 21 22 23 23 22 22 21 20 20 19 18 18 18 18 18 17 16 15 15 15 15 14 14 13 13 13 13 13 13 13 12 13 14 14 14 15 16 17 15 14 13 12 11 11 11 12 13 14 14 14
29 28 25 22 20 18 17 17 19 21 23 25 26 26 26 26 26 25 24 23 22 22 23 23 23 22 22 21 20 20 20 20 20 20 20 21 22 23 24 24 23 22 22 21 20 20 19 19 20 19 18 18 17 16 17 16 16 15 15 14 14 13 14 14 14 13 13 14 15 15 16 17 18 15 13 13 13 12 11 12 12 13 15 16 16
31 29 26 24 23 21 19 19 20 22 23 25 26 26 27 26 25 25 25 24 22 21 21 22 23 23 22 22 21 21 21 20 20 20 20 21 22 23 24 24 23 23 23 23 22 22 21 20 21 21 20 19 18 18 17 18 17 17 16 15 15 15 15 15 15 14 14 15 15 15 16 17 17 14 11 11 12 12 11 12 12 13 14 15 16
31 31 28 27 26 25 24 23 23 23 24 25 26 26 26 26 26 27 26 25 24 22 21 21 22 22 23 23 22 21 21 20 19 19 20 20 21 22 23 23 23 24 24 23 23 23 23 22 22 22 21 20 19 19 19 19 19 19 18 17 17 16 16 16 16 15 15 15 15 15 16 17 16 13 10 10 11 11 11 11 12 12 13 14 16
33 33 31 31 30 29 28 27 26 25 25 25 26 26 26 26 28 28 28 27 26 25 23 22 21 23 24 24 22 21 21 20 19 19 19 19 19 19 20 20 21 22 22 23 23 24 24 23 23 23 23 22 21 21 21 20 20 20 20 18 18 18 18 18 17 16 16 16 16 15 16 16 15 12 11 11 11 11 11 11 12 12 13 14 15
36 36 35 35 35 34 33 30 28 27 26 26 26 26 25 26 27 28 29 28 28 27 25 23 23 24 24 23 22 22 20 19 19 19 18 18 18 17 17 17 17 18 19 20 21 21 22 22 23 24 25 24 23 23 23 22 22 22 21 20 19 19 20 20 19 18 17 17 17 16 16 16 15 13 12 12 12 11 12 13 13 13 15 16 17
37 38 38 39 39 38 36 32 30 29 28 27 28 27 25 24 26 27 28 30 30 29 26 24 24 24 23 22 22 21 20 20 20 19 19 18 17 15 14 14 14 14 14 14 14 15 15 17 20 22 24 25 25 25 25 23 23 22 22 21 20 20 22 22 21 19 18 17 18 17 16 16 15 13 13 14 13 13 14 15 14 14 16 19 20
39 39 40 41 41 40 37 35 33 33 31 30 31 30 27 25 25 25 27 30 31 31 28 26 25 24 22 22 22 21 20 21 20 20 19 18 16 13 12 12 11 10 10 9 9 9 10 11 13 15 18 21 22 22 22 22 22 22 22 22 21 22 23 23 22 21 20 19 19 18 16 16 15 15 15 15 15 15 15 15 15 15 17 21 23
41 41 41 41 41 40 39 38 37 36 35 34 33 31 29 28 26 25 27 29 31 31 30 28 27 25 22 21 21 21 22 22 22 21 20 18 15 13 12 11 9 7 6 6 6 7 8 9 10 10 12 14 15 15 16 18 19 20 21 22 22 23 25 25 24 23 22 20 20 20 18 17 17 16 16 16 17 16 15 14 15 16 19 23 26
43 43 42 41 41 41 40 38 37 37 37 35 33 32 30 28 26 25 25 27 30 32 31 29 27 24 21 21 22 23 23 23 23 22 21 18 16 14 13 11 8 6 5 4 5 6 7 9 10 11 11 12 11 11 12 15 18 19 20 23 23 24 26 27 26 25 24 22 21 21 19 18 18 18 17 18 18 18 17 16 16 18 21 24 27
42 43 43 42 42 42 41 38 37 37 38 36 34 32 30 28 26 24 23 24 27 30 31 29 27 23 22 22 23 24 24 24 24 23 22 19 18 16 14 11 9 8 6 6 6 7 8 9 10 11 13 13 13 12 12 15 18 18 20 22 24 25 27 28 27 26 25 24 23 23 22 21 20 20 20 19 19 20 20 19 19 20 22 24 27
36 39 40 41 41 40 40 39 38 38 38 37 35 33 30 28 26 24 23 23 26 28 30 29 25 23 22 23 23 25 25 25 25 24 23 21 19 17 15 13 11 10 9 9 9 10 10 10 11 11 13 14 14 14 13 15 18 19 19 21 23 25 27 28 27 26 26 26 26 25 24 23 23 23 23 22 21 21 22 21 20 21 23 25 27
28 29 32 34 35 35 37 39 39 38 38 37 36 33 30 27 25 24 24 24 25 27 28 28 25 24 23 22 24 26 27 26 26 25 24 22 21 19 17 15 14 13 13 13 13 13 14 13 13 13 14 14 14 14 15 16 18 20 20 20 22 25 26 27 27 27 27 27 27 27 26 25 25 25 26 25 24 23 23 22 22 22 24 26 27
25 24 25 27 28 29 32 35 36 37 37 37 37 34 29 25 25 25 25 25 24 25 27 27 26 25 24 24 25 27 27 26 26 26 25 25 23 21 19 18 17 17 18 18 18 18 18 17 16 16 16 15 15 15 16 18 20 21 21 21 22 23 25 27 27 27 28 27 28 28 27 26 26 27 28 27 27 26 25 24 23 23 25 28 28
25 24 24 24 24 24 26 28 30 32 34 35 34 32 29 27 26 25 24 23 22 23 25 26 26 25 25 25 26 26 26 26 26 27 27 27 25 23 22 21 20 20 20 21 21 21 21 20 20 19 18 18 16 15 16 19 21 23 24 23 24 24 25 27 27 28 28 28 28 29 28 27 28 28 29 29 29 29 28 26 25 25 27 29 31
27 25 24 24 23 22 22 23 24 26 28 30 30 30 29 28 27 25 23 23 22 22 23 24 25 25 25 25 25 25 25 25 26 27 27 27 26 25 24 24 23 22 22 22 23 24 24 23 23 23 22 20 18 17 18 19 21 23 25 25 26 26 26 27 28 28 28 28 29 29 29 29 29 29 29 30 31 31 29 27 27 27 29 31 33
29 27 26 25 24 23 22 22 22 23 25 27 29 30 30 29 28 25 24 24 24 23 22 22 22 23 24 25 24 24 24 24 24 25 25 25 26 26 25 25 25 25 25 24 25 25 26 26 26 26 24 22 21 21 21 20 22 24 27 28 28 28 28 28 29 29 30 30 30 30 30 30 31 30 29 31 33 33 31 29 28 30 31 33 34
31 29 28 27 26 24 23 23 23 23 24 26 28 29 30 30 30 27 25 25 26 25 24 23 22 22 24 25 24 24 23 23 24 25 25 26 26 27 27 27 26 26 26 27 27 28 28 29 29 28 27 25 24 24 23 23 24 26 28 29 30 29 29 29 30 31 32 32 31 30 31 32 32 31 30 32 35 35 32 30 30 32 33 35 36
34 32 30 29 27 26 25 25 25 25 25 26 27 29 30 31 31 29 26 26 27 26 26 24 23 23 25 26 25 25 24 24 26 26 26 26 27 28 28 28 28 28 28 29 30 30 30 31 31 30 29 29 28 28 27 27 27 29 30 31 31 31 31 31 32 32 33 33 32 31 31 33 33 32 31 34 37 37 35 32 32 33 34 36 38
37 35 33 32 30 29 27 27 27 27 27 27 28 29 30 31 32 31 29 28 27 27 27 26 25 25 26 25 25 27 28 29 29 28 27 28 29 30 31 31 31 30 30 31 33 33 32 32 32 32 33 32 32 32 32 31 31 31 33 33 32 33 33 32 32 32 33 34 34 32 32 33 34 33 33 36 39 40 38 35 35 35 36 38 41
39 38 36 35 34 32 30 30 29 29 29 29 29 29 30 32 33 33 30 28 28 29 29 28 26 26 25 24 26 28 30 29 28 27 28 30 31 32 33 35 36 36 35 35 35 34 34 33 34 34 35 34 34 34 35 36 36 35 35 35 36 35 34 33 33 33 34 35 35 35 33 34 35 35 35 38 41 43 41 39 39 38 38 41 43
40 39 39 38 36 35 33 32 32 31 31 31 30 30 31 32 34 34 32 30 31 32 31 30 28 27 26 25 26 27 28 28 28 28 29 31 32 31 32 34 37 39 40 39 38 36 36 36 36 36 35 34 34 34 34 36 38 39 38 38 39 37 35 35 35 35 36 36 36 36 35 35 38 38 38 40 44 45 45 43 42 41 41 43 46
40 40 39 39 38 36 35 34 33 33 32 32 32 32 33 33 33 34 33 32 32 33 33 32 30 29 28 27 28 28 28 30 31 30 32 34 33 33 33 34 35 37 38 39 39 39 38 38 38 38 36 35 34 34 34 34 36 41 42 41 42 41 39 39 39 38 38 38 37 38 37 37 39 40 40 43 46 48 48 46 45 44 44 46 48
40 40 39 39 38 37 36 35 34 34 34 34 33 34 34 34 34 34 34 34 34 34 35 35 33 32 32 31 31 32 33 34 35 34 35 36 36 36 36 37 38 38 38 39 39 39 40 40 40 40 39 38 37 37 36 34 33 37 42 44 44 45 45 45 43 41 41 41 41 41 39 37 38 41 42 45 48 50 50 48 47 48 48 49 51
42 41 40 39 38 37 37 36 35 34 35 35 34 34 35 35 36 36 35 35 35 35 36 37 37 36 36 35 35 36 37 38 39 39 39 39 39 39 39 39 40 40 42 42 42 42 42 42 43 43 43 42 41 39 38 36 33 34 39 43 46 47 49 50 48 46 46 46 46 46 42 37 39 43 44 47 51 51 51 51 51 51 52 54 55
42 42 41 40 39 38 37 37 36 36 35 35 35 35 36 36 37 38 38 37 37 37 38 39 39 39 39 40 40 39 40 41 41 42 43 42 41 41 41 40 41 42 43 44 45 45 46 45 45 45 44 44 44 41 38 37 36 35 36 40 43 46 49 51 50 49 49 49 49 49 45 41 41 44 46 48 50 49 50 53 53 55 57 59 57
43 43 43 42 40 39 38 38 37 37 36 36 36 37 37 37 38 39 39 40 40 40 41 41 42 42 43 43 43 43 43 43 43 44 45 44 43 43 43 42 42 43 44 45 46 48 49 48 48 47 46 45 46 44 42 41 40 40 40 41 44 46 49 50 51 50 51 53 53 52 48 44 44 47 48 49 49 49 52 54 55 58 61 61 59
42 43 43 43 42 40 39 38 38 38 38 38 38 38 38 38 38 38 39 40 41 42 42 43 43 44 44 45 44 44 44 44 44 45 45 44 44 44 43 43 44 45 45 46 48 49 50 51 50 50 49 49 48 47 47 47 45 44 44 45 46 49 52 54 54 53 53 54 55 55 53 50 49 50 49 48 49 50 53 54 56 61 63 62 62
42 42 42 42 41 40 39 38 38 38 38 39 39 39 39 39 39 39 40 40 42 42 42 43 43 44 45 45 44 44 44 44 45 45 45 44 43 43 44 45 46 46 47 49 49 50 51 52 52 53 53 53 52 51 51 51 49 47 47 48 49 51 55 58 57 56 57 58 59 59 57 56 55 54 51 50 51 52 52 53 56 60 64 65 66
42 41 41 40 40 39 38 38 38 38 38 39 39 40 41 41 41 41 41 41 42 42 43 44 44 45 45 45 45 45 45 45 46 46 46 45 45 45 47 47 48 48 49 50 51 51 51 52 53 54 55 56 55 53 53 54 54 52 51 51 52 53 56 59 58 58 62 64 64 63 60 59 59 58 56 55 55 55 54 55 57 61 65 66 67
44 43 42 41 40 39 39 38 39 39 38 38 39 39 40 41 42 42 42 42 42 44 45 45 46 46 46 47 47 48 47 47 47 48 48 48 48 48 48 49 49 49 50 51 52 53 53 54 56 56 56 57 57 55 54 56 58 57 56 56 57 57 58 58 60 64 69 70 69 66 63 61 60 60 59 59 59 58 57 58 61 65 68 68 68
46 45 44 44 43 42 41 40 39 39 38 38 37 38 39 40 41 41 41 42 43 44 45 46 46 46 46 47 48 48 48 48 49 49 50 50 50 49 49 49 50 50 51 53 54 55 56 57 58 59 59 58 58 58 57 59 61 60 60 61 63 63 63 63 65 70 74 74 72 70 67 64 63 62 61 61 61 60 60 61 65 69 71 70 68
Wind_Direction
180 184 183 182 182 185 188 186 181 178 178 178 176 175 172 170 172 174 176 179 182 185 188 190 191 192 193 194 193 192 190 190 188 186 185 183 182 183 183 183 177 162 129 96 83 73 63 60 56 48 51 57 54 54 55 51 54 62 61 57 52 48 44 41 39 40 40 36 27 21 18 13 9 3 355 345 340 338 329 323 318 311 308 307 308
174 183 183 183 182 183 189 190 184 181 181 179 178 178 174 171 170 171 175 179 183 187 191 193 195 194 194 194 193 191 191 191 189 188 187 185 185 187 187 185 176 157 121 81 63 54 52 57 54 51 61 62 59 60 60 62 70 72 66 61 55 49 46 44 44 45 46 45 40 34 27 20 14 10 5 359 355 352 347 338 328 325 318 308 305
172 181 184 185 185 185 188 190 187 184 184 182 181 180 176 173 170 169 175 181 185 190 194 195 196 195 194 194 193 192 191 191 191 192 190 188 188 190 191 187 177 158 116 69 48 36 43 53 53 56 70 70 65 67 67 71 81 79 70 63 56 49 45 44 44 44 43 42 40 35 30 27 22 17 15 13 10 8 8 1 349 345 336 325 320
173 178 183 186 188 188 189 190 189 187 186 185 184 181 179 176 173 173 177 181 186 191 195 196 194 194 193 194 193 191 191 192 194 195 193 192 193 194 195 192 185 174 139 66 37 27 33 42 46 54 76 75 69 72 72 72 83 83 72 60 52 47 44 42 42 40 37 34 32 28 25 25 22 18 16 15 16 18 21 21 14 10 1 346 343
174 174 177 185 189 191 190 189 190 190 189 189 187 185 184 182 180 180 181 181 185 188 189 189 190 192 193 194 194 194 196 197 197 197 196 196 198 199 200 199 197 193 192 108 37 27 25 26 18 28 91 80 69 72 69 59 65 72 67 55 47 42 39 39 38 33 28 25 23 21 18 17 16 14 11 9 10 11 14 18 17 17 17 9 1
178 174 174 182 188 191 192 191 192 193 193 191 190 189 187 186 185 184 183 182 183 181 178 179 183 188 191 195 197 198 199 199 199 199 199 201 202 203 206 205 204 203 211 234 35 33 21 15 347 273 216 104 65 61 48 31 38 50 54 51 45 40 36 34 30 24 20 16 14 13 12 10 9 7 6 4 4 4 4 5 7 8 10 11 9
184 177 175 178 182 188 190 192 194 196 197 194 192 191 188 187 186 185 184 182 179 175 171 175 180 184 190 195 199 202 203 203 204 203 203 205 205 208 212 212 211 210 218 239 333 31 22 9 331 265 243 228 46 24 356 3 16 28 37 40 37 35 32 28 22 16 11 7 4 1 359 357 356 356 357 356 356 358 358 356 356 356 356 359 1
192 182 178 176 179 186 189 191 195 196 197 195 193 193 189 187 186 184 182 180 176 172 171 176 180 187 191 194 198 203 206 207 208 209 208 208 210 213 216 214 214 217 221 232 255 10 17 7 341 290 259 252 283 323 321 337 356 6 17 23 22 23 24 20 13 6 1 359 357 356 354 353 353 353 352 350 348 349 350 349 349 349 348 349 351
200 190 181 177 177 184 189 192 195 195 194 194 195 193 190 187 185 183 181 179 176 175 175 179 184 191 193 193 196 200 204 209 212 213 213 213 214 217 217 213 214 217 220 229 241 281 352 2 351 324 281 264 266 289 298 312 334 346 355 0 356 359 9 7 360 356 355 357 0 1 360 360 1 1 359 355 350 345 342 339 340 342 344 345 344
206 199 189 182 179 182 189 193 195 194 193 193 193 191 189 188 185 183 182 180 180 181 182 185 189 193 195 196 197 197 200 207 212 216 218 219 219 220 220 216 218 220 222 229 238 256 305 347 351 341 313 281 270 278 284 292 310 324 329 329 322 322 339 346 347 349 353 359 5 5 3 3 4 5 5 3 359 353 346 339 334 334 337 339 337
205 203 196 190 185 184 189 193 194 194 193 192 191 190 189 189 189 188 187 186 187 189 190 192 194 197 199 199 199 198 199 204 210 216 220 223 224 225 225 224 225 228 228 233 238 247 270 318 339 343 332 300 277 274 278 282 292 303 304 294 290 293 308 329 339 346 352 359 3 3 4 4 4 6 9 10 9 6 2 355 344 336 334 334 333
201 202 200 197 191 186 187 190 194 193 193 193 192 192 192 192 194 196 196 196 196 198 199 200 201 202 202 200 200 199 200 205 210 215 219 224 227 229 231 232 232 232 233 236 239 244 252 274 313 333 336 316 290 276 276 280 283 290 292 282 277 278 295 321 335 344 349 353 355 358 4 9 8 9 10 13 15 14 13 12 5 355 347 341 339
200 201 201 200 196 191 189 190 191 192 193 194 193 194 196 197 199 200 201 203 203 203 204 204 205 206 204 201 201 200 201 206 212 216 220 224 228 231 234 236 237 238 239 241 243 245 246 250 272 308 323 319 304 284 274 275 278 282 285 282 276 275 295 318 331 340 345 347 348 352 1 9 13 15 11 10 14 15 17 20 19 11 6 2 357
199 200 200 199 195 194 194 192 190 191 194 195 195 196 198 201 202 202 202 203 203 204 204 205 207 208 207 203 202 202 203 208 212 218 221 223 226 230 234 237 239 241 243 245 247 247 248 248 257 281 301 308 307 293 273 270 273 277 279 281 279 276 295 315 326 335 339 340 342 346 356 5 10 17 15 8 9 13 15 18 20 16 13 12 9
201 201 201 198 195 194 195 193 191 191 195 197 198 199 201 204 205 205 205 204 204 205 205 206 209 212 211 208 206 205 207 210 215 220 224 227 229 231 234 238 241 244 246 249 250 251 252 251 254 269 286 294 299 295 277 267 269 273 276 279 280 279 292 310 320 328 332 335 338 342 353 2 2 7 11 7 6 9 11 13 15 14 11 11 10
205 205 204 202 198 197 197 196 192 191 195 197 199 201 203 206 208 209 209 207 207 207 207 208 211 214 215 214 212 211 211 213 216 221 226 230 232 233 235 237 240 244 248 251 252 253 254 254 253 260 275 284 290 292 280 266 265 271 274 277 280 281 290 305 315 322 326 331 334 337 349 358 355 354 359 2 2 3 4 5 8 8 7 5 3
209 209 208 206 204 202 201 200 197 195 195 195 197 200 201 204 206 208 209 209 209 210 211 213 215 217 218 219 219 218 218 219 221 224 228 232 236 238 239 239 240 242 245 250 253 253 255 255 253 254 264 276 285 289 283 267 260 266 271 274 279 282 289 300 310 316 320 325 328 332 342 350 347 343 344 349 353 355 356 356 358 359 358 357 354
211 209 211 211 210 209 207 206 203 200 197 195 197 199 199 200 203 205 206 207 210 212 214 218 220 221 223 224 225 225 225 226 228 231 233 236 239 242 244 244 244 244 245 247 250 252 255 256 255 254 257 267 279 286 284 270 258 259 266 271 276 281 286 295 303 310 314 319 324 329 338 345 340 334 332 336 342 346 347 347 348 348 348 347 346
211 211 213 215 216 215 214 213 210 207 203 200 201 202 199 199 201 203 204 206 209 212 215 219 222 224 227 230 231 232 233 234 236 238 240 241 242 244 246 247 247 248 247 247 248 250 252 253 255 255 254 259 272 283 284 274 259 254 260 265 269 276 283 289 296 303 307 313 319 326 335 341 338 330 325 327 332 335 338 338 338 339 339 338 338
211 212 215 215 215 216 217 216 215 215 212 208 207 205 203 203 203 205 207 210 213 216 218 222 224 227 230 233 236 238 240 242 243 244 246 246 246 247 248 248 249 250 251 250 250 250 250 251 253 254 253 255 263 275 282 277 262 252 254 260 263 270 277 284 290 296 301 307 314 323 331 336 337 333 324 322 325 327 330 332 333 334 333 332 330
213 214 216 215 213 214 217 217 217 218 217 215 213 209 209 209 208 209 212 215 219 222 224 225 228 229 231 233 236 238 240 244 246 249 250 251 251 251 251 250 250 252 253 253 253 252 251 250 252 253 252 252 256 266 276 278 266 253 251 255 258 262 270 278 284 288 294 302 308 319 329 333 336 337 327 319 319 321 324 329 333 333 331 328 327
215 216 217 214 209 209 214 220 223 223 220 220 218 215 215 216 216 218 218 219 223 227 230 232 232 232 232 233 234 237 242 247 250 252 253 253 254 254 254 253 252 253 253 255 256 256 254 252 253 253 252 251 253 259 270 275 268 254 248 251 254 257 262 271 278 280 288 296 302 315 327 331 335 338 330 317 314 317 323 331 338 339 333 328 324
215 216 215 211 207 207 212 219 226 229 227 224 221 219 220 222 225 228 227 226 227 229 231 235 235 234 232 233 236 240 246 250 253 255 255 254 253 252 254 255 255 254 255 257 259 260 259 258 258 258 257 255 254 257 264 271 267 254 247 248 251 253 257 264 270 274 281 290 298 311 324 328 332 335 327 312 309 314 325 336 344 346 341 333 326
213 214 212 209 208 211 216 220 223 230 235 233 227 222 222 226 230 233 235 236 235 232 230 232 235 235 233 235 239 244 248 251 253 255 254 252 251 249 250 253 255 256 258 259 260 262 263 263 263 263 263 260 257 257 261 265 264 255 245 245 248 250 253 259 264 268 275 285 293 306 319 325 328 330 320 307 306 314 325 332 337 340 340 336 330
212 212 211 210 211 214 220 223 224 228 235 240 239 231 227 230 233 236 239 241 242 240 235 232 233 235 234 236 241 246 250 252 253 253 252 251 250 250 251 251 253 256 259 260 262 264 265 264 264 263 263 262 260 258 259 261 261 254 245 242 245 248 251 255 259 262 269 279 288 300 314 320 322 322 313 304 306 314 319 321 323 328 332 333 328
212 212 212 212 215 218 222 225 226 227 231 238 243 242 238 237 238 238 239 240 242 243 241 237 236 236 236 238 243 249 252 252 251 251 250 250 250 250 250 248 249 252 255 259 262 263 263 262 262 262 263 264 263 261 261 260 259 254 247 243 244 247 250 254 257 259 263 272 282 293 306 314 314 313 308 305 309 313 314 313 315 320 325 326 325
215 214 214 215 218 221 223 224 226 227 228 233 241 246 247 247 247 245 242 240 240 242 242 239 238 239 238 238 244 249 250 249 248 247 246 247 247 245 241 239 241 245 250 255 260 264 264 263 264 265 265 264 264 263 262 259 257 255 250 245 244 246 249 253 256 257 259 266 276 285 298 306 306 305 304 304 308 312 314 315 317 320 323 324 323
218 217 217 218 219 221 224 224 225 227 226 229 237 244 248 251 253 251 248 243 240 240 240 238 238 239 238 239 243 246 246 245 244 243 244 246 245 240 234 233 233 237 246 257 268 274 276 274 273 273 270 267 266 264 262 261 261 259 253 247 245 246 249 253 256 257 257 261 269 278 289 297 299 299 299 299 302 307 312 315 317 319 322 323 323
219 221 221 221 221 222 224 224 224 226 225 225 233 240 244 249 253 253 251 247 243 240 239 236 235 236 236 237 241 243 243 242 242 243 245 246 244 239 235 231 227 231 242 263 283 292 292 288 283 278 274 272 269 266 266 266 266 264 256 248 245 245 248 252 256 258 257 258 264 272 281 289 292 293 293 293 295 299 304 308 311 316 320 323 324
219 223 224 224 223 223 224 222 221 223 224 224 230 236 240 244 249 252 250 248 244 242 240 238 236 233 233 234 237 240 240 239 240 242 243 243 242 240 237 231 227 234 245 259 276 288 294 294 292 285 279 275 271 270 268 267 267 264 257 250 247 246 249 254 258 259 258 257 260 267 275 283 287 288 288 289 290 293 298 302 306 312 318 322 324
217 222 224 226 227 226 225 223 221 222 224 225 229 234 238 240 245 250 250 248 245 242 241 239 235 230 229 230 234 237 237 236 237 239 240 241 241 240 239 236 235 240 247 257 267 275 279 283 286 285 281 277 273 271 268 266 266 264 258 253 250 249 252 258 262 262 260 257 258 263 270 277 284 286 286 287 288 289 293 298 303 308 314 319 322
216 219 223 225 227 227 226 225 224 225 226 227 230 234 238 240 243 247 247 246 244 241 239 237 232 227 225 226 230 233 234 235 235 236 237 239 240 239 239 241 244 248 252 257 262 266 269 271 273 275 277 276 273 270 268 264 263 262 260 256 253 253 255 261 265 267 264 260 259 261 266 273 280 284 286 287 288 288 290 295 300 305 310 315 318
216 217 220 222 223 223 223 224 225 226 227 229 232 234 237 240 242 244 245 244 242 239 236 233 229 224 221 221 225 228 230 233 234 234 235 237 238 237 237 239 243 248 253 258 262 264 266 269 270 269 269 270 270 268 266 264 263 262 259 256 255 255 257 261 266 268 268 265 262 262 264 269 275 280 284 287 289 289 290 293 298 303 308 311 314
222 222 223 225 226 227 225 225 225 225 226 228 232 233 234 236 240 244 246 246 242 238 234 230 226 221 218 219 222 223 225 229 231 232 233 234 235 235 234 236 239 243 249 257 263 266 267 267 268 267 265 265 266 266 265 266 267 265 262 258 256 255 256 259 263 267 269 268 266 264 264 266 270 276 281 284 286 288 290 293 298 302 305 308 311
230 231 231 232 233 235 235 233 230 227 225 226 228 230 231 232 236 243 247 246 243 240 236 231 226 221 218 219 221 221 223 227 229 231 232 233 234 235 236 238 240 242 245 252 259 264 266 266 266 268 267 264 261 260 262 264 268 269 267 262 258 256 256 258 261 264 267 268 267 266 265 264 267 271 277 280 283 286 289 293 298 300 302 305 308
234 234 235 235 236 237 239 238 236 232 229 228 227 228 229 230 233 239 245 246 245 245 244 242 238 233 229 226 225 225 226 228 231 232 234 236 238 240 241 243 244 244 245 249 253 258 262 264 264 265 266 263 257 255 257 261 267 270 269 265 262 259 258 259 260 262 265 267 267 266 265 264 264 267 272 276 279 283 288 292 296 299 301 304 306
236 235 235 234 235 236 238 240 239 236 233 231 230 229 229 229 232 236 243 248 249 249 250 252 253 249 240 234 232 231 231 232 234 235 237 240 243 245 247 248 247 248 250 253 255 256 257 259 261 263 265 263 258 253 252 256 264 268 268 267 266 264 262 261 261 261 263 265 267 267 267 265 264 265 269 273 276 280 285 289 293 296 299 302 304
236 235 234 233 233 235 237 239 241 240 236 234 234 232 229 229 231 234 239 246 252 254 255 257 259 252 241 237 237 237 237 238 239 239 241 243 246 249 252 253 251 251 253 255 257 257 257 258 261 266 270 271 267 261 256 253 256 262 266 267 268 268 266 264 264 264 266 267 268 268 269 268 267 266 266 269 274 278 282 285 288 292 296 300 301
235 235 234 233 232 234 235 237 239 240 240 237 236 235 232 229 229 232 235 241 249 254 257 258 256 250 245 243 242 241 241 242 243 246 248 250 252 253 254 256 255 255 256 257 259 261 263 265 268 272 274 276 275 272 266 259 255 258 263 265 267 268 269 269 269 269 269 269 270 269 269 270 269 267 265 268 271 275 278 281 283 287 292 295 297
235 236 235 234 233 233 234 235 236 237 239 239 238 237 235 231 230 231 233 237 243 248 252 253 253 251 251 251 249 247 246 247 250 254 257 257 258 259 260 261 260 259 258 259 261 265 268 272 274 275 274 275 275 276 273 267 260 257 260 262 264 266 268 270 272 271 270 269 269 269 269 269 269 268 267 268 270 273 275 277 280 284 287 290 294
236 236 237 236 235 233 233 234 235 235 235 237 238 238 238 235 233 232 233 235 239 243 247 251 253 253 252 251 250 249 249 251 254 257 258 260 261 263 266 266 264 262 260 261 263 267 270 272 273 274 274 273 274 276 277 273 265 260 259 262 263 265 267 268 270 270 269 269 269 269 268 267 268 268 267 267 269 271 273 275 278 281 283 286 290
236 236 237 238 238 236 233 232 234 235 235 235 236 238 239 238 236 234 233 235 238 241 246 249 250 252 252 252 251 250 248 248 250 252 257 260 263 265 267 268 268 266 264 263 264 267 270 271 272 272 273 274 276 277 280 279 272 264 260 261 263 265 265 265 266 268 269 270 270 270 268 267 268 269 268 267 267 269 271 273 276 278 280 282 284
236 237 238 239 239 239 236 233 232 234 235 235 235 236 238 240 239 236 235 236 238 241 245 248 251 253 254 256 257 257 256 255 254 255 258 261 264 267 269 270 270 270 269 267 268 270 271 273 274 275 276 277 278 277 277 278 275 267 262 262 264 266 265 263 263 264 266 267 268 266 265 266 267 268 267 267 267 267 269 272 273 275 277 278 280
236 237 239 240 240 241 241 238 236 234 234 235 236 236 237 239 240 239 237 237 237 239 243 246 250 252 254 256 259 261 261 260 260 260 261 263 266 268 270 271 270 271 271 272 273 275 276 278 279 279 279 279 279 277 274 273 273 268 264 264 266 268 268 267 266 264 263 264 264 264 264 263 264 266 266 265 265 266 267 270 271 273 274 275 276
236 237 238 239 240 241 243 243 241 239 236 236 236 237 238 238 239 240 240 239 239 240 241 244 247 250 252 255 256 258 260 260 260 261 262 264 266 267 269 271 272 273 274 277 279 280 281 282 281 280 280 279 279 277 273 270 268 267 267 268 269 269 271 273 274 273 269 265 264 264 264 262 261 262 261 261 262 264 267 269 270 271 272 272 273
236 237 238 239 239 240 242 244 244 242 239 237 236 237 239 239 240 241 242 242 242 243 243 244 247 249 251 253 255 257 258 258 258 259 261 263 266 268 271 273 275 276 278 280 282 283 283 283 281 279 279 278 278 277 275 272 270 269 270 270 270 270 271 273 274 275 272 268 266 266 266 264 261 261 260 259 260 262 264 266 267 269 270 271 273
237 238 239 241 241 240 240 242 244 243 241 239 238 239 240 241 242 242 243 243 244 245 246 247 249 251 252 254 255 256 257 258 259 261 262 265 268 270 272 274 276 277 278 278 279 279 280 280 280 279 278 277 276 277 276 276 274 274 273 272 270 271 272 272 272 273 272 271 270 269 268 264 261 262 262 261 261 261 262 264 267 269 270 272 275
238 239 241 242 243 243 242 242 243 244 244 243 242 242 242 244 244 244 245 245 245 246 247 249 250 252 254 256 257 259 260 261 262 263 265 267 269 270 271 274 275 275 274 275 274 274 274 275 276 276 277 276 276 276 276 278 278 276 275 272 269 269 270 270 271 271 270 270 270 269 266 262 260 261 263 263 263 264 265 267 269 271 272 273 274
239 241 241 243 244 245 245 244 244 244 245 246 246 245 244 244 245 246 246 247 248 249 249 250 252 253 255 258 259 260 261 262 263 265 266 268 269 270 271 271 271 270 270 271 271 271 271 270 271 272 272 274 275 275 277 279 278 275 273 271 268 267 267 269 270 268 266 266 267 267 266 263 261 261 262 262 262 262 264 267 268 270 271 272 272
242 242 242 243 244 245 246 247 247 246 247 247 247 246 245 244 245 246 247 248 250 251 252 253 254 255 257 258 260 261 262 262 263 265 266 267 269 270 269 269 269 268 268 268 268 269 269 269 269 270 270 272 273 274 275 275 275 275 275 274 272 269 267 267 267 266 264 264 265 265 266 266 265 265 264 264 263 261 261 263 266 268 268 269 271
245 245 245 245 245 246 247 248 249 248 248 247 246 246 246 245 245 246 247 248 249 250 251 253 254 255 256 258 259 261 262 263 263 264 265 266 266 267 268 268 269 270 270 270 269 269 270 271 272 273 273 274 275 276 275 274 274 275 275 274 273 272 269 267 267 267 267 267 266 265 266 267 267 268 267 267 267 265 261 259 261 263 265 266 269
Height
5900 5900 5900 5901 5902 5903 5905 5906 5908 5909 5911 5912 5914 5915 5916 5917 5919 5920 5922 5924 5926 5927 5928 5930 5931 5932 5933 5934 5934 5935 5936 5937 5938 5939 5939 5940 5940 5941 5941 5942 5942 5942 5942 5943 5942 5942 5942 5942 5942 5942 5941 5941 5940 5940 5939 5939 5938 5937 5936 5936 5935 5935 5934 5933 5932 5931 5930 5930 5930 5930 5930 5929 5929 5928 5928 5927 5926 5926 5925 5925 5925 5925 5924 5924 5924
5899 5900 5900 5901 5901 5903 5904 5906 5908 5909 5911 5912 5913 5915 5916 5917 5918 5920 5922 5923 5925 5926 5928 5929 5931 5932 5933 5934 5935 5936 5936 5937 5938 5939 5940 5940 5941 5941 5941 5942 5942 5942 5942 5943 5943 5942 5943 5943 5942 5942 5942 5941 5941 5940 5940 5939 5938 5937 5937 5936 5936 5935 5935 5934 5933 5932 5931 5931 5931 5931 5930 5930 5929 5928 5927 5926 5926 5925 5925 5925 5924 5924 5924 5923 5923
5898 5899 5900 5900 5901 5902 5904 5905 5907 5908 5910 5912 5913 5914 5915 5916 5918 5919 5921 5923 5924 5926 5927 5929 5930 5932 5933 5934 5935 5936 5937 5937 5938 5939 5940 5940 5941 5941 5942 5942 5942 5942 5943 5943 5943 5943 5943 5943 5943 5943 5942 5942 5941 5941 5940 5940 5939 5938 5938 5937 5937 5936 5936 5935 5934 5933 5933 5932 5932 5931 5931 5930 5929 5928 5927 5926 5926 5925 5925 5924 5924 5924 5924 5923 5922
5896 5898 5899 5900 5901 5901 5903 5904 5906 5907 5909 5911 5913 5914 5915 5916 5917 5918 5920 5921 5923 5925 5927 5928 5930 5931 5933 5934 5935 5936 5937 5937 5938 5939 5939 5940 5941 5941 5942 5942 5942 5942 5943 5943 5943 5943 5943 5943 5943 5943 5943 5942 5941 5941 5940 5940 5940 5939 5938 5938 5937 5937 5936 5935 5935 5934 5934 5933 5933 5932 5931 5931 5930 5929 5928 5927 5926 5925 5925 5924 5924 5924 5923 5923 5922
5894 5896 5897 5899 5900 5901 5902 5903 5905 5907 5908 5910 5912 5913 5914 5915 5916 5917 5919 5920 5922 5924 5926 5927 5929 5930 5932 5933 5934 5935 5936 5936 5937 5938 5939 5940 5940 5941 5941 5942 5942 5943 5943 5943 5943 5943 5943 5943 5943 5943 5943 5942 5941 5941 5941 5941 5940 5939 5938 5938 5938 5937 5937 5936 5935 5935 5935 5934 5934 5933 5932 5931 5930 5929 5928 5927 5926 5925 5925 5924 5923 5923 5923 5922 5922
5894 5895 5896 5897 5899 5900 5902 5903 5905 5906 5907 5909 5910 5911 5913 5914 5916 5917 5918 5920 5921 5923 5925 5926 5928 5929 5930 5932 5933 5934 5934 5935 5937 5938 5939 5939 5940 5941 5941 5942 5942 5943 5943 5943 5943 5943 5943 5943 5943 5943 5943 5942 5941 5941 5941 5941 5940 5939 5939 5938 5938 5937 5937 5936 5936 5936 5935 5934 5934 5933 5932 5931 5930 5929 5928 5927 5926 5925 5924 5924 5923 5923 5923 5922 5922
5895 5894 5895 5896 5898 5899 5901 5902 5904 5905 5906 5908 5909 5910 5911 5913 5915 5916 5917 5919 5921 5922 5924 5925 5926 5928 5929 5930 5931 5933 5934 5935 5936 5937 5938 5939 5940 5940 5941 5941 5942 5942 5943 5943 5943 5943 5943 5943 5943 5943 5943 5942 5942 5941 5941 5941 5940 5939 5939 5938 5938 5937 5937 5936 5936 5936 5935 5935 5934 5933 5932 5931 5929 5928 5928 5927 5926 5925 5925 5924 5923 5923 5922 5922 5921
5894 5894 5894 5895 5896 5898 5899 5901 5902 5903 5905 5907 5908 5909 5911 5912 5913 5915 5916 5918 5920 5921 5923 5924 5925 5926 5927 5929 5931 5932 5933 5935 5936 5936 5937 5938 5939 5939 5940 5941 5941 5942 5942 5942 5942 5942 5943 5943 5943 5942 5942 5942 5942 5941 5941 5941 5940 5940 5939 5938 5938 5937 5937 5937 5937 5936 5935 5934 5933 5932 5931 5930 5929 5928 5927 5926 5926 5925 5924 5924 5923 5922 5922 5921 5921
5894 5894 5894 5894 5895 5897 5898 5900 5901 5903 5904 5906 5907 5908 5910 5911 5912 5914 5916 5917 5919 5920 5921 5922 5923 5925 5926 5928 5929 5931 5932 5933 5934 5935 5936 5937 5938 5938 5939 5940 5941 5941 5942 5942 5942 5942 5942 5942 5942 5942 5942 5942 5942 5941 5941 5941 5941 5940 5940 5939 5938 5938 5937 5937 5937 5936 5935 5934 5933 5932 5931 5930 5928 5928 5927 5926 5925 5925 5924 5923 5923 5922 5921 5921 5920
5894 5894 5894 5894 5894 5895 5897 5898 5900 5902 5904 5905 5906 5908 5909 5911 5912 5914 5915 5917 5918 5919 5920 5921 5922 5923 5925 5926 5928 5929 5931 5932 5933 5934 5935 5935 5936 5937 5938 5939 5940 5940 5941 5941 5942 5942 5942 5942 5942 5942 5942 5942 5941 5941 5941 5941 5941 5941 5940 5939 5939 5938 5938 5937 5937 5936 5935 5934 5933 5932 5931 5930 5929 5928 5927 5926 5925 5924 5924 5923 5922 5921 5921 5920 5920
5893 5894 5894 5894 5893 5894 5896 5898 5900 5902 5903 5904 5906 5908 5909 5911 5913 5914 5915 5917 5918 5919 5920 5921 5921 5922 5923 5925 5926 5927 5929 5930 5931 5932 5933 5934 5935 5936 5937 5938 5939 5939 5940 5940 5941 5941 5941 5941 5942 5941 5941 5941 5941 5941 5941 5941 5941 5941 5940 5940 5939 5939 5938 5938 5937 5935 5934 5933 5932 5932 5931 5930 5929 5928 5927 5926 5925 5924 5923 5922 5922 5921 5920 5920 5919
5891 5892 5893 5893 5894 5894 5895 5897 5899 5901 5903 5904 5906 5907 5909 5910 5912 5913 5915 5916 5917 5918 5919 5920 5921 5922 5922 5923 5924 5926 5927 5928 5929 5930 5931 5932 5933 5934 5935 5936 5937 5938 5939 5939 5940 5940 5940 5941 5941 5941 5940 5940 5940 5940 5940 5941 5941 5941 5940 5940 5939 5939 5938 5938 5936 5935 5934 5933 5932 5931 5931 5930 5928 5927 5926 5926 5925 5924 5923 5922 5921 5920 5920 5919 5919
5890 5891 5892 5893 5894 5895 5895 5896 5898 5900 5902 5903 5904 5906 5908 5909 5910 5912 5914 5915 5916 5917 5918 5919 5920 5920 5921 5922 5923 5924 5925 5926 5927 5928 5930 5931 5932 5933 5934 5934 5935 5936 5937 5938 5939 5939 5939 5940 5940 5940 5940 5939 5939 5939 5940 5940 5940 5940 5940 5940 5940 5939 5938 5937 5936 5935 5934 5933 5932 5931 5930 5929 5928 5927 5926 5925 5925 5924 5923 5922 5921 5920 5920 5919 5918
5888 5889 5890 5892 5893 5894 5894 5895 5897 5898 5900 5901 5903 5904 5906 5908 5909 5910 5912 5913 5914 5916 5917 5918 5919 5919 5920 5920 5921 5922 5923 5924 5925 5926 5928 5929 5930 5931 5932 5933 5934 5934 5935 5936 5937 5938 5938 5939 5939 5939 5939 5938 5938 5938 5938 5939 5939 5939 5939 5939 5939 5939 5938 5937 5936 5935 5934 5933 5932 5931 5929 5928 5928 5927 5926 5925 5925 5924 5923 5922 5921 5920 5919 5919 5918
5887 5888 5889 5890 5891 5892 5893 5894 5895 5896 5898 5900 5902 5903 5905 5906 5908 5909 5910 5911 5913 5914 5915 5916 5917 5918 5918 5919 5920 5921 5922 5923 5924 5925 5926 5927 5928 5929 5930 5931 5932 5933 5934 5935 5935 5936 5937 5937 5938 5938 5938 5937 5937 5937 5937 5938 5938 5938 5938 5939 5939 5938 5937 5937 5936 5935 5934 5933 5932 5931 5929 5928 5927 5927 5926 5925 5924 5924 5923 5922 5921 5920 5920 5919 5918
5886 5887 5888 5890 5890 5891 5892 5893 5894 5895 5896 5898 5900 5902 5904 5905 5906 5908 5909 5910 5911 5913 5914 5915 5915 5916 5917 5918 5919 5920 5921 5922 5922 5923 5924 5925 5926 5927 5928 5929 5930 5931 5932 5933 5934 5935 5935 5936 5936 5936 5937 5936 5936 5936 5936 5936 5937 5937 5937 5938 5938 5938 5937 5936 5935 5934 5934 5933 5932 5931 5929 5928 5928 5927 5926 5925 5924 5923 5922 5922 5921 5921 5920 5919 5918
5884 5886 5888 5889 5889 5890 5892 5893 5894 5894 5895 5897 5899 5900 5902 5903 5905 5906 5907 5909 5910 5911 5912 5913 5914 5915 5916 5917 5918 5919 5920 5920 5921 5921 5922 5923 5924 5925 5926 5927 5928 5929 5930 5931 5932 5933 5933 5934 5934 5935 5935 5935 5935 5935 5935 5935 5935 5935 5936 5936 5937 5937 5936 5935 5934 5934 5933 5933 5932 5931 5929 5928 5928 5927 5927 5926 5925 5923 5922 5921 5921 5920 5920 5919 5918
5883 5885 5886 5887 5889 5890 5891 5893 5894 5894 5895 5896 5897 5898 5899 5901 5902 5904 5906 5907 5908 5909 5911 5912 5913 5914 5915 5916 5917 5918 5918 5919 5919 5920 5921 5922 5923 5923 5924 5925 5926 5927 5928 5929 5930 5931 5931 5932 5932 5933 5933 5934 5933 5933 5933 5933 5933 5934 5934 5935 5935 5935 5935 5934 5933 5933 5932 5932 5931 5930 5929 5928 5928 5927 5927 5926 5925 5923 5922 5921 5920 5919 5919 5918 5917
5881 5883 5884 5886 5888 5889 5891 5892 5894 5895 5895 5896 5896 5897 5898 5899 5901 5902 5904 5905 5906 5907 5908 5909 5911 5913 5914 5915 5916 5916 5917 5918 5918 5919 5919 5920 5921 5921 5922 5923 5924 5925 5926 5927 5928 5928 5929 5930 5930 5931 5931 5932 5932 5932 5932 5932 5932 5932 5933 5933 5934 5934 5934 5933 5932 5932 5931 5931 5930 5929 5928 5928 5928 5927 5926 5925 5925 5923 5922 5921 5920 5918 5917 5916 5915
5880 5881 5883 5885 5887 5888 5890 5891 5893 5894 5895 5895 5896 5896 5897 5898 5899 5901 5902 5904 5905 5906 5907 5908 5910 5911 5912 5913 5914 5915 5916 5916 5916 5917 5918 5918 5919 5919 5920 5921 5922 5923 5924 5924 5925 5926 5927 5928 5928 5929 5929 5930 5930 5930 5930 5930 5930 5931 5931 5931 5932 5932 5932 5932 5931 5931 5930 5930 5929 5928 5928 5927 5927 5926 5925 5924 5924 5923 5922 5921 5919 5918 5916 5915 5914
5879 5880 5882 5884 5885 5886 5888 5889 5890 5891 5892 5893 5894 5896 5897 5897 5898 5899 5901 5902 5904 5905 5906 5907 5908 5910 5911 5912 5913 5913 5913 5914 5914 5915 5916 5916 5917 5917 5918 5919 5920 5921 5921 5922 5923 5924 5925 5925 5926 5926 5927 5927 5928 5928 5928 5928 5929 5929 5929 5929 5930 5930 5930 5930 5930 5930 5929 5929 5928 5928 5927 5926 5926 5925 5924 5923 5923 5922 5921 5920 5919 5917 5915 5914 5913
5877 5879 5880 5882 5883 5884 5885 5886 5886 5887 5889 5891 5893 5895 5896 5897 5898 5899 5899 5901 5902 5904 5905 5906 5907 5908 5909 5910 5910 5911 5912 5912 5913 5913 5914 5914 5915 5915 5916 5916 5918 5918 5919 5920 5921 5922 5923 5923 5923 5924 5924 5925 5926 5926 5926 5927 5927 5927 5927 5927 5928 5928 5928 5928 5928 5928 5928 5928 5927 5927 5926 5925 5925 5924 5923 5922 5921 5921 5920 5919 5918 5916 5915 5913 5912
5875 5876 5878 5879 5881 5882 5882 5883 5884 5885 5886 5888 5891 5893 5895 5896 5897 5898 5899 5900 5901 5902 5903 5904 5905 5906 5907 5907 5908 5909 5910 5910 5911 5911 5912 5912 5913 5913 5914 5914 5915 5916 5917 5918 5918 5919 5920 5921 5921 5921 5922 5923 5923 5924 5924 5924 5925 5925 5925 5925 5926 5926 5926 5926 5926 5926 5926 5926 5926 5925 5925 5924 5923 5922 5922 5921 5920 5919 5918 5917 5916 5915 5913 5912 5911
5871 5873 5875 5876 5878 5879 5880 5881 5882 5883 5884 5885 5887 5890 5893 5894 5895 5896 5897 5898 5899 5900 5901 5902 5903 5903 5904 5905 5906 5907 5908 5909 5909 5909 5910 5910 5910 5911 5912 5913 5913 5914 5915 5915 5916 5917 5918 5918 5919 5919 5919 5920 5921 5921 5922 5922 5922 5922 5923 5923 5923 5924 5924 5924 5924 5924 5924 5924 5924 5924 5924 5923 5922 5921 5920 5919 5918 5917 5916 5915 5914 5913 5911 5910 5909
5867 5869 5871 5873 5875 5876 5877 5879 5880 5882 5882 5883 5885 5887 5890 5891 5893 5894 5895 5896 5896 5897 5899 5900 5900 5901 5902 5903 5904 5905 5906 5906 5907 5907 5907 5908 5908 5909 5910 5911 5912 5912 5913 5913 5913 5914 5915 5915 5916 5916 5916 5917 5918 5918 5919 5919 5919 5920 5920 5921 5921 5921 5921 5921 5921 5922 5922 5922 5922 5922 5922 5922 5920 5919 5918 5917 5916 5916 5914 5913 5912 5911 5910 5908 5907
5864 5866 5868 5870 5871 5873 5875 5877 5878 5880 5881 5881 5882 5884 5886 5888 5890 5891 5893 5893 5893 5895 5897 5898 5898 5898 5900 5901 5902 5902 5903 5904 5904 5904 5905 5905 5906 5907 5908 5909 5910 5910 5911 5911 5911 5911 5912 5912 5912 5912 5913 5913 5914 5915 5916 5916 5917 5917 5918 5918 5919 5919 5919 5919 5919 5919 5920 5920 5920 5920 5920 5920 5919 5917 5916 5915 5914 5913 5912 5911 5910 5909 5908 5906 5905
5861 5863 5865 5866 5868 5870 5873 5875 5876 5877 5878 5879 5880 5881 5883 5885 5887 5888 5889 5889 5890 5892 5894 5896 5896 5897 5898 5899 5900 5901 5901 5902 5902 5902 5903 5903 5905 5906 5906 5907 5908 5908 5909 5909 5909 5909 5909 5909 5909 5909 5910 5910 5911 5912 5912 5913 5914 5915 5915 5916 5916 5917 5917 5916 5917 5917 5917 5918 5917 5917 5918 5918 5917 5916 5915 5913 5912 5911 5910 5909 5908 5907 5905 5904 5902
5857 5859 5861 5863 5865 5867 5869 5871 5872 5874 5876 5877 5877 5879 5880 5882 5883 5884 5885 5886 5887 5889 5891 5893 5894 5895 5897 5898 5898 5899 5899 5900 5900 5900 5901 5902 5903 5904 5905 5905 5906 5906 5907 5907 5907 5907 5907 5907 5907 5907 5908 5908 5908 5909 5910 5911 5911 5912 5913 5913 5914 5914 5914 5914 5914 5914 5915 5915 5915 5915 5916 5916 5915 5914 5913 5912 5910 5909 5908 5907 5906 5904 5903 5901 5899
5854 5855 5858 5860 5862 5864 5866 5868 5869 5871 5873 5874 5875 5876 5878 5879 5880 5881 5881 5882 5884 5885 5887 5889 5891 5893 5895 5896 5895 5896 5897 5897 5898 5899 5899 5901 5902 5902 5903 5903 5904 5904 5905 5905 5905 5906 5906 5906 5906 5906 5906 5906 5906 5907 5907 5908 5909 5909 5910 5910 5911 5911 5911 5911 5911 5912 5912 5913 5913 5913 5913 5913 5912 5912 5911 5910 5909 5907 5906 5905 5904 5902 5900 5899 5896
5850 5852 5854 5856 5858 5860 5862 5864 5867 5868 5870 5872 5873 5874 5876 5877 5877 5877 5878 5879 5880 5882 5884 5886 5888 5890 5892 5892 5892 5893 5894 5895 5896 5897 5898 5899 5899 5900 5901 5901 5902 5902 5903 5903 5904 5904 5904 5904 5904 5904 5903 5904 5904 5905 5905 5905 5906 5906 5906 5907 5908 5908 5908 5908 5909 5909 5910 5910 5911 5910 5910 5910 5910 5909 5908 5908 5907 5905 5903 5902 5901 5900 5898 5896 5894
5847 5849 5851 5853 5854 5856 5858 5861 5863 5865 5867 5869 5870 5871 5873 5874 5874 5875 5876 5876 5877 5879 5881 5883 5885 5887 5888 5889 5890 5891 5892 5893 5894 5895 5896 5896 5897 5897 5898 5899 5900 5901 5901 5901 5902 5902 5902 5902 5902 5902 5901 5902 5902 5902 5903 5903 5903 5903 5903 5904 5905 5905 5905 5905 5906 5907 5907 5908 5908 5908 5908 5907 5907 5906 5905 5905 5904 5903 5901 5900 5899 5897 5895 5893 5891
5844 5846 5848 5850 5852 5853 5856 5858 5859 5861 5863 5865 5867 5868 5869 5871 5872 5873 5873 5874 5875 5877 5878 5880 5882 5883 5884 5885 5887 5887 5889 5890 5891 5892 5893 5894 5894 5895 5896 5897 5898 5898 5899 5899 5899 5899 5899 5900 5900 5900 5900 5900 5900 5900 5900 5900 5900 5900 5900 5901 5901 5902 5902 5903 5903 5904 5904 5904 5905 5905 5905 5905 5904 5903 5902 5901 5901 5900 5899 5897 5896 5895 5893 5891 5889
5841 5843 5845 5847 5849 5851 5852 5854 5856 5858 5860 5861 5863 5865 5867 5869 5870 5870 5870 5871 5873 5874 5876 5877 5878 5879 5880 5882 5883 5884 5886 5887 5888 5890 5890 5891 5891 5893 5894 5894 5895 5896 5896 5896 5896 5897 5897 5897 5897 5898 5898 5898 5898 5898 5898 5898 5897 5897 5897 5898 5898 5899 5899 5899 5899 5900 5900 5901 5901 5901 5901 5901 5901 5899 5898 5898 5897 5896 5896 5895 5894 5892 5890 5889 5887
5839 5840 5842 5844 5846 5848 5849 5851 5852 5854 5856 5858 5859 5862 5864 5865 5866 5867 5868 5869 5871 5872 5873 5874 5875 5876 5878 5879 5879 5881 5882 5884 5885 5886 5887 5888 5889 5890 5891 5892 5892 5892 5893 5893 5894 5894 5894 5894 5895 5895 5895 5895 5896 5896 5896 5895 5895 5894 5894 5894 5895 5895 5895 5895 5896 5896 5896 5897 5897 5897 5897 5897 5897 5896 5895 5894 5894 5893 5892 5891 5890 5889 5888 5886 5884
5836 5838 5840 5842 5844 5846 5847 5849 5850 5851 5853 5855 5856 5858 5860 5861 5863 5864 5866 5867 5868 5869 5871 5872 5873 5874 5875 5876 5877 5878 5879 5880 5881 5882 5884 5885 5886 5887 5888 5889 5889 5889 5890 5890 5890 5891 5891 5891 5891 5891 5892 5893 5893 5893 5893 5893 5892 5891 5891 5891 5891 5891 5891 5891 5891 5892 5892 5893 5893 5893 5893 5893 5893 5893 5892 5891 5890 5889 5888 5888 5887 5885 5884 5883 5881
5834 5836 5837 5839 5841 5843 5845 5846 5848 5849 5850 5852 5853 5855 5856 5858 5860 5862 5863 5865 5866 5867 5868 5870 5871 5872 5873 5874 5875 5876 5877 5878 5879 5880 5881 5883 5883 5884 5885 5885 5886 5886 5886 5887 5887 5888 5888 5888 5887 5888 5888 5889 5890 5890 5890 5890 5889 5888 5887 5887 5887 5887 5888 5887 5887 5887 5888 5888 5888 5889 5889 5889 5889 5889 5889 5888 5886 5885 5885 5884 5883 5881 5880 5879 5878
5831 5833 5835 5836 5838 5840 5842 5844 5845 5847 5848 5849 5850 5852 5853 5855 5857 5859 5861 5862 5863 5865 5866 5867 5869 5870 5870 5871 5873 5874 5875 5876 5877 5878 5879 5880 5881 5881 5881 5882 5882 5882 5883 5883 5884 5884 5884 5883 5883 5884 5884 5885 5886 5886 5886 5886 5886 5885 5884 5883 5884 5884 5884 5884 5883 5883 5883 5884 5884 5885 5885 5884 5884 5885 5886 5884 5882 5881 5881 5880 5879 5877 5876 5875 5874
5828 5830 5831 5833 5835 5837 5839 5840 5842 5844 5845 5846 5848 5849 5851 5852 5854 5856 5858 5859 5860 5862 5863 5864 5866 5867 5867 5869 5870 5871 5873 5873 5874 5875 5877 5877 5877 5878 5878 5878 5878 5879 5879 5879 5879 5879 5879 5879 5880 5880 5880 5881 5882 5882 5882 5882 5881 5880 5879 5879 5879 5879 5879 5880 5879 5879 5879 5879 5880 5881 5881 5880 5880 5881 5882 5880 5878 5877 5877 5877 5875 5873 5872 5871 5869
5824 5826 5828 5830 5832 5834 5836 5837 5839 5840 5842 5843 5845 5846 5848 5849 5851 5852 5854 5856 5858 5859 5860 5861 5862 5863 5864 5866 5867 5868 5869 5870 5871 5873 5874 5874 5874 5874 5874 5874 5875 5875 5875 5875 5875 5875 5876 5876 5876 5876 5877 5877 5878 5878 5878 5878 5878 5876 5875 5875 5874 5874 5875 5875 5876 5876 5875 5875 5875 5876 5876 5876 5876 5877 5878 5876 5874 5872 5873 5873 5871 5870 5869 5867 5865
5820 5823 5825 5827 5829 5831 5833 5834 5836 5837 5838 5840 5841 5843 5844 5846 5847 5849 5851 5854 5855 5856 5856 5857 5859 5860 5861 5863 5864 5865 5866 5867 5869 5870 5871 5871 5871 5871 5871 5871 5871 5871 5871 5871 5871 5872 5872 5872 5873 5873 5873 5873 5873 5873 5874 5874 5874 5872 5871 5870 5869 5869 5870 5871 5871 5871 5871 5870 5870 5871 5872 5872 5871 5871 5873 5872 5869 5868 5868 5868 5867 5866 5865 5863 5861
5816 5819 5821 5823 5825 5827 5829 5831 5833 5834 5835 5837 5838 5840 5841 5842 5844 5846 5848 5850 5851 5852 5853 5855 5856 5857 5859 5860 5861 5862 5863 5864 5865 5866 5867 5867 5867 5868 5867 5867 5867 5866 5866 5867 5867 5867 5868 5868 5868 5868 5868 5869 5869 5869 5868 5869 5869 5869 5867 5865 5864 5864 5865 5866 5865 5865 5865 5865 5865 5866 5867 5867 5866 5866 5867 5867 5864 5863 5862 5863 5863 5862 5861 5859 5857
5811 5814 5816 5819 5821 5824 5826 5828 5829 5831 5832 5833 5835 5836 5837 5839 5841 5842 5844 5846 5847 5849 5850 5852 5853 5854 5856 5857 5858 5859 5860 5860 5861 5862 5862 5862 5863 5863 5863 5863 5862 5862 5862 5862 5862 5863 5863 5863 5863 5863 5863 5864 5864 5864 5863 5863 5864 5864 5862 5861 5859 5859 5859 5859 5858 5859 5859 5859 5860 5860 5861 5862 5861 5861 5861 5861 5859 5857 5857 5857 5858 5857 5856 5855 5852
5805 5808 5811 5814 5817 5819 5822 5824 5825 5827 5828 5830 5831 5833 5834 5835 5837 5839 5840 5842 5844 5846 5847 5848 5850 5851 5852 5853 5854 5855 5856 5856 5857 5858 5858 5858 5858 5858 5858 5858 5858 5857 5857 5857 5857 5857 5857 5857 5857 5858 5858 5859 5859 5858 5858 5858 5858 5858 5857 5856 5854 5853 5852 5852 5852 5852 5852 5853 5853 5852 5853 5856 5856 5855 5855 5854 5852 5851 5851 5852 5853 5852 5851 5849 5847
5800 5803 5806 5809 5811 5814 5817 5819 5821 5823 5824 5826 5828 5829 5831 5832 5834 5835 5837 5838 5840 5842 5843 5845 5846 5847 5848 5849 5850 5850 5851 5852 5852 5853 5853 5854 5854 5854 5854 5854 5853 5853 5852 5852 5852 5852 5852 5851 5852 5852 5852 5852 5852 5852 5852 5852 5852 5852 5851 5851 5849 5847 5846 5845 5845 5846 5846 5845 5845 5844 5846 5849 5849 5848 5848 5847 5845 5845 5845 5846 5846 5846 5845 5843 5841
5795 5798 5801 5803 5806 5809 5811 5814 5816 5818 5820 5821 5823 5825 5827 5828 5830 5831 5833 5834 5836 5838 5839 5841 5842 5842 5843 5844 5845 5846 5846 5847 5847 5848 5848 5849 5849 5849 5849 5849 5848 5848 5847 5846 5846 5846 5845 5845 5845 5845 5846 5846 5845 5846 5846 5847 5847 5846 5846 5845 5844 5842 5840 5839 5838 5838 5838 5837 5836 5836 5839 5842 5842 5840 5839 5838 5838 5839 5840 5840 5840 5839 5837 5835 5834
5790 5793 5796 5798 5801 5804 5806 5808 5811 5813 5815 5816 5818 5820 5822 5823 5825 5827 5828 5830 5831 5833 5834 5835 5836 5837 5838 5839 5840 5841 5841 5841 5842 5842 5843 5843 5843 5843 5843 5843 5843 5842 5841 5841 5840 5839 5838 5838 5838 5839 5839 5839 5838 5838 5839 5840 5841 5841 5840 5840 5838 5836 5834 5832 5831 5830 5829 5828 5828 5829 5832 5834 5834 5831 5831 5831 5832 5833 5833 5832 5832 5831 5829 5827 5827
5785 5788 5791 5793 5796 5799 5801 5803 5805 5808 5810 5812 5813 5815 5817 5818 5820 5822 5823 5825 5826 5827 5829 5830 5831 5832 5833 5833 5834 5835 5836 5836 5836 5837 5837 5837 5837 5837 5837 5837 5836 5836 5836 5835 5834 5833 5832 5831 5831 5832 5832 5831 5831 5832 5832 5833 5834 5835 5835 5834 5833 5831 5828 5825 5824 5824 5822 5820 5821 5822 5824 5826 5825 5823 5823 5825 5825 5825 5825 5826 5826 5824 5822 5821 5821
5780 5783 5786 5788 5791 5794 5796 5798 5800 5803 5805 5807 5809 5810 5812 5813 5815 5816 5818 5819 5821 5822 5823 5824 5825 5826 5827 5828 5829 5829 5830 5830 5830 5830 5831 5831 5831 5831 5831 5831 5830 5830 5830 5829 5828 5827 5826 5825 5825 5825 5824 5823 5824 5824 5824 5825 5827 5828 5828 5826 5825 5824 5820 5817 5817 5817 5815 5812 5812 5814 5815 5815 5815 5815 5816 5817 5818 5818 5819 5820 5820 5817 5815 5814 5813
5775 5777 5780 5783 5785 5788 5791 5793 5795 5797 5799 5801 5803 5805 5806 5808 5809 5811 5812 5813 5815 5816 5817 5818 5819 5820 5821 5822 5822 5823 5823 5823 5824 5824 5824 5824 5825 5825 5825 5825 5824 5824 5823 5823 5822 5821 5820 5820 5819 5817 5816 5815 5816 5818 5819 5818 5817 5818 5818 5817 5816 5816 5813 5810 5810 5808 5803 5799 5801 5803 5805 5806 5806 5806 5808 5809 5810 5811 5812 5812 5812 5810 5808 5806 5805
5769 5771 5774 5777 5779 5782 5785 5787 5790 5792 5794 5796 5798 5799 5801 5802 5803 5805 5806 5808 5809 5810 5810 5811 5812 5813 5814 5815 5815 5815 5816 5817 5817 5817 5817 5818 5818 5818 5818 5818 5818 5817 5817 5817 5816 5814 5814 5813 5810 5809 5809 5809 5809 5811 5812 5810 5807 5807 5808 5807 5807 5806 5805 5803 5801 5795 5788 5786 5789 5792 5794 5796 5797 5797 5799 5800 5801 5803 5804 5805 5804 5802 5800 5798 5797
5762 5765 5768 5770 5773 5776 5778 5781 5783 5786 5788 5790 5792 5794 5795 5797 5798 5799 5800 5802 5802 5803 5804 5805 5805 5806 5807 5808 5808 5808 5809 5810 5810 5810 5810 5811 5811 5811 5811 5811 5811 5811 5810 5810 5809 5808 5807 5805 5802 5801 5800 5801 5801 5802 5802 5800 5798 5798 5798 5798 5797 5796 5794 5793 5791 5784 5778 5778 5781 5783 5785 5787 5788 5789 5790 5791 5793 5794 5796 5796 5795 5792 5791 5791 5791